• In Colombia
  • List of Countries
  • For 7 days
  • Water Temperature
  • Weather Map
  • Weather Widgets
  • user-avatar
    Login

    Hourly Weather Risan

    Today, 13 December, Friday

    Time Temperature Precipitation Wind Pressure Humidity
    00:00 +9°C° 0.4 mm 3 mps 744 mmHg 95%
    01:00 +9°C° 0 mm 3 mps 744 mmHg 96%
    02:00 +9°C° 0.6 mm 3 mps 744 mmHg 96%
    03:00 +9°C° 0.6 mm 3 mps 743 mmHg 96%
    04:00 +9°C° 0.6 mm 3 mps 743 mmHg 97%
    05:00 +9°C° 0.4 mm 2 mps 743 mmHg 97%
    06:00 +9°C° 0.4 mm 2 mps 743 mmHg 96%
    07:00 +8°C° 0.4 mm 2 mps 743 mmHg 96%
    08:00 +9°C° 0.4 mm 3 mps 743 mmHg 94%
    09:00 +9°C° 0.4 mm 3 mps 743 mmHg 91%
    10:00 +10°C° 0.4 mm 4 mps 743 mmHg 89%
    11:00 +10°C° 0.3 mm 4 mps 742 mmHg 87%
    12:00 +10°C° 0.3 mm 4 mps 742 mmHg 85%
    13:00 +11°C° 0.3 mm 4 mps 741 mmHg 82%
    14:00 +9°C° 0.1 mm 5 mps 741 mmHg 84%
    15:00 +9°C° 0.1 mm 5 mps 740 mmHg 85%
    16:00 +9°C° 0.1 mm 5 mps 739 mmHg 87%
    17:00 +9°C° 0.6 mm 6 mps 738 mmHg 89%
    18:00 +9°C° 0.6 mm 7 mps 737 mmHg 92%
    19:00 +9°C° 0.6 mm 8 mps 736 mmHg 94%
    20:00 +8°C° 1.1 mm 9 mps 735 mmHg 94%
    21:00 +8°C° 1.1 mm 10 mps 734 mmHg 94%
    22:00 +8°C° 1.1 mm 11 mps 733 mmHg 94%
    23:00 +8°C° 4.3 mm 9 mps 733 mmHg 94%

    Tomorrow, 14 December, Saturday

    Time Temperature Precipitation Wind Pressure Humidity
    00:00 +8°C° 4.3 mm 7 mps 732 mmHg 94%
    01:00 +8°C° 4.3 mm 5 mps 731 mmHg 93%
    02:00 +8°C° 3.5 mm 5 mps 732 mmHg 94%
    03:00 +8°C° 3.5 mm 5 mps 732 mmHg 95%
    04:00 +8°C° 3.5 mm 5 mps 733 mmHg 95%
    05:00 +8°C° 0.2 mm 4 mps 734 mmHg 94%
    06:00 +8°C° 0.2 mm 4 mps 735 mmHg 93%
    07:00 +9°C° 0.2 mm 3 mps 736 mmHg 92%
    08:00 +10°C° 0 mm 3 mps 737 mmHg 88%
    09:00 +12°C° 0 mm 2 mps 739 mmHg 84%
    10:00 +13°C° 0 mm 2 mps 740 mmHg 80%
    11:00 +13°C° 0 mm 3 mps 741 mmHg 76%
    12:00 +13°C° 0 mm 3 mps 742 mmHg 73%
    13:00 +14°C° 0 mm 4 mps 743 mmHg 69%
    14:00 +13°C° 0 mm 3 mps 744 mmHg 73%
    15:00 +12°C° 0 mm 3 mps 745 mmHg 77%
    16:00 +12°C° 0 mm 2 mps 746 mmHg 81%
    17:00 +11°C° 0 mm 3 mps 747 mmHg 82%
    18:00 +10°C° 0 mm 3 mps 748 mmHg 82%
    19:00 +8°C° 0 mm 4 mps 749 mmHg 83%
    20:00 +9°C° 0 mm 3 mps 750 mmHg 82%
    21:00 +9°C° 0 mm 3 mps 751 mmHg 82%
    22:00 +9°C° 0 mm 3 mps 752 mmHg 81%
    23:00 +8°C° 0 mm 3 mps 753 mmHg 80%

    Day after tomorrow, 15 December, Sunday

    Time Temperature Precipitation Wind Pressure Humidity
    00:00 +8°C° 0 mm 3 mps 754 mmHg 79%
    01:00 +8°C° 0 mm 3 mps 754 mmHg 78%
    02:00 +8°C° 0 mm 3 mps 754 mmHg 76%
    03:00 +8°C° 0 mm 3 mps 755 mmHg 74%
    04:00 +8°C° 0 mm 3 mps 755 mmHg 72%
    05:00 +8°C° 0 mm 3 mps 755 mmHg 70%
    06:00 +8°C° 0 mm 3 mps 755 mmHg 68%
    07:00 +8°C° 0 mm 3 mps 756 mmHg 66%
    08:00 +10°C° 0 mm 2 mps 756 mmHg 64%
    09:00 +12°C° 0 mm 1 mps 756 mmHg 62%
    10:00 +14°C° 0 mm 1 mps 757 mmHg 60%
    11:00 +15°C° 0 mm 1 mps 757 mmHg 58%
    12:00 +16°C° 0 mm 1 mps 757 mmHg 56%
    13:00 +16°C° 0 mm 1 mps 757 mmHg 55%
    14:00 +15°C° 0 mm 1 mps 757 mmHg 59%
    15:00 +14°C° 0 mm 2 mps 757 mmHg 63%
    16:00 +13°C° 0 mm 2 mps 757 mmHg 68%
    17:00 +13°C° 0 mm 2 mps 758 mmHg 67%
    18:00 +12°C° 0 mm 2 mps 758 mmHg 66%
    19:00 +11°C° 0 mm 3 mps 759 mmHg 66%
    20:00 +11°C° 0 mm 3 mps 759 mmHg 68%
    21:00 +11°C° 0 mm 3 mps 759 mmHg 70%
    22:00 +11°C° 0 mm 3 mps 760 mmHg 73%
    23:00 +11°C° 0 mm 3 mps 760 mmHg 76%

    16 December, Monday

    Time Temperature Precipitation Wind Pressure Humidity
    00:00 +10°C° 0 mm 3 mps 760 mmHg 79%
    01:00 +10°C° 0 mm 3 mps 760 mmHg 81%
    02:00 +11°C° 0 mm 3 mps 760 mmHg 82%
    03:00 +11°C° 0 mm 3 mps 761 mmHg 83%
    04:00 +11°C° 0 mm 3 mps 761 mmHg 84%
    05:00 +11°C° 0 mm 3 mps 761 mmHg 86%
    06:00 +10°C° 0 mm 3 mps 761 mmHg 87%
    07:00 +10°C° 0 mm 3 mps 761 mmHg 89%
    08:00 +11°C° 0 mm 3 mps 761 mmHg 87%
    09:00 +12°C° 0 mm 3 mps 761 mmHg 86%
    10:00 +13°C° 0 mm 3 mps 762 mmHg 84%
    11:00 +14°C° 0 mm 3 mps 761 mmHg 83%
    12:00 +14°C° 0 mm 3 mps 761 mmHg 82%
    13:00 +16°C° 0 mm 3 mps 760 mmHg 81%
    14:00 +14°C° 0 mm 3 mps 760 mmHg 84%
    15:00 +14°C° 0 mm 3 mps 761 mmHg 86%
    16:00 +13°C° 0 mm 3 mps 761 mmHg 89%
    17:00 +12°C° 0 mm 3 mps 761 mmHg 90%
    18:00 +12°C° 0 mm 3 mps 761 mmHg 91%
    19:00 +11°C° 0 mm 3 mps 761 mmHg 92%
    20:00 +11°C° 0 mm 3 mps 761 mmHg 91%
    21:00 +11°C° 0 mm 3 mps 761 mmHg 91%
    22:00 +11°C° 0 mm 3 mps 761 mmHg 91%
    23:00 +11°C° 0 mm 3 mps 761 mmHg 90%

    17 December, Tuesday

    Time Temperature Precipitation Wind Pressure Humidity
    00:00 +10°C° 0 mm 3 mps 761 mmHg 90%
    01:00 +10°C° 0 mm 3 mps 761 mmHg 90%
    02:00 +10°C° 0 mm 3 mps 761 mmHg 89%
    03:00 +10°C° 0 mm 3 mps 761 mmHg 88%
    04:00 +10°C° 0 mm 3 mps 760 mmHg 88%
    05:00 +10°C° 0 mm 3 mps 760 mmHg 87%
    06:00 +10°C° 0 mm 3 mps 761 mmHg 87%
    07:00 +10°C° 0 mm 4 mps 761 mmHg 86%
    08:00 +11°C° 0 mm 3 mps 761 mmHg 83%
    09:00 +13°C° 0 mm 3 mps 761 mmHg 80%
    10:00 +14°C° 0 mm 3 mps 761 mmHg 77%
    11:00 +14°C° 0 mm 3 mps 760 mmHg 77%
    12:00 +16°C° 0 mm 3 mps 760 mmHg 76%
    13:00 +16°C° 0 mm 3 mps 759 mmHg 76%
    14:00 +14°C° 0 mm 3 mps 759 mmHg 80%
    15:00 +14°C° 0 mm 3 mps 759 mmHg 85%
    16:00 +13°C° 0 mm 3 mps 760 mmHg 89%
    17:00 +12°C° 0 mm 3 mps 760 mmHg 89%
    18:00 +12°C° 0 mm 3 mps 760 mmHg 90%
    19:00 +11°C° 0 mm 3 mps 760 mmHg 90%
    20:00 +11°C° 0 mm 3 mps 760 mmHg 90%
    21:00 +11°C° 0 mm 3 mps 760 mmHg 89%
    22:00 +11°C° 0 mm 3 mps 760 mmHg 89%
    23:00 +11°C° 0 mm 3 mps 760 mmHg 88%

    18 December, Wednesday

    Time Temperature Precipitation Wind Pressure Humidity
    00:00 +11°C° 0 mm 3 mps 760 mmHg 88%
    01:00 +11°C° 0 mm 3 mps 760 mmHg 87%
    02:00 +11°C° 0 mm 3 mps 760 mmHg 87%
    03:00 +11°C° 0 mm 3 mps 760 mmHg 87%
    04:00 +10°C° 0 mm 3 mps 759 mmHg 87%
    05:00 +10°C° 0 mm 3 mps 759 mmHg 87%
    06:00 +10°C° 0 mm 3 mps 759 mmHg 87%
    07:00 +10°C° 0 mm 4 mps 759 mmHg 87%
    08:00 +11°C° 0 mm 3 mps 759 mmHg 85%
    09:00 +12°C° 0 mm 3 mps 759 mmHg 83%
    10:00 +14°C° 0 mm 3 mps 759 mmHg 80%
    11:00 +14°C° 0 mm 4 mps 759 mmHg 80%
    12:00 +15°C° 0 mm 4 mps 758 mmHg 80%
    13:00 +15°C° 0 mm 4 mps 758 mmHg 79%
    14:00 +14°C° 0 mm 4 mps 758 mmHg 83%
    15:00 +13°C° 0 mm 4 mps 758 mmHg 87%
    16:00 +12°C° 0 mm 3 mps 758 mmHg 91%
    17:00 +12°C° 0 mm 3 mps 758 mmHg 91%
    18:00 +12°C° 0 mm 3 mps 758 mmHg 91%
    19:00 +11°C° 0 mm 3 mps 758 mmHg 92%
    20:00 +12°C° 0 mm 4 mps 758 mmHg 91%
    21:00 +12°C° 0 mm 4 mps 758 mmHg 91%
    22:00 +12°C° 0 mm 4 mps 758 mmHg 91%
    23:00 +12°C° 0 mm 4 mps 758 mmHg 90%
    Show more